Total_Precipitation_Accumulation
0.05 0.06 0.07 0.08 0.08 0.07 0.12 0.08 0.10 0.06 0.07 0.09 0.07 0.08 0.07 0.07 0.07 0.06 0.06 0.07 0.07 0.08 0.13 0.15 0.15 0.15 0.14 0.16 0.21 0.21 0.18 0.18 0.16 0.17 0.18 0.18 0.20 0.23 0.23 0.23 0.37 0.34 0.22 0.07 0.02 0.01 0.01 0.00 0.02 0.03 0.06 0.09 0.15 0.16 0.15 0.06 0.04 0.06 0.04 0.07 0.09 0.13 0.10
0.07 0.07 0.08 0.09 0.09 0.08 0.08 0.13 0.10 0.07 0.08 0.07 0.06 0.07 0.08 0.09 0.12 0.07 0.08 0.06 0.06 0.06 0.07 0.12 0.14 0.11 0.10 0.12 0.19 0.23 0.23 0.22 0.20 0.23 0.22 0.19 0.19 0.21 0.21 0.18 0.23 0.28 0.24 0.16 0.05 0.02 0.01 0.01 0.01 0.03 0.04 0.07 0.09 0.13 0.17 0.15 0.10 0.07 0.08 0.07 0.11 0.14 0.10
0.11 0.11 0.11 0.11 0.09 0.09 0.11 0.12 0.13 0.10 0.13 0.14 0.13 0.10 0.08 0.07 0.07 0.06 0.06 0.06 0.05 0.05 0.06 0.08 0.11 0.12 0.12 0.12 0.21 0.22 0.24 0.24 0.25 0.24 0.22 0.22 0.16 0.15 0.12 0.14 0.19 0.24 0.23 0.17 0.12 0.05 0.03 0.02 0.02 0.03 0.04 0.05 0.09 0.11 0.09 0.15 0.18 0.15 0.14 0.11 0.11 0.11 0.09
0.09 0.10 0.10 0.11 0.11 0.15 0.10 0.11 0.09 0.11 0.14 0.15 0.12 0.14 0.16 0.12 0.09 0.08 0.09 0.10 0.07 0.06 0.06 0.07 0.10 0.11 0.12 0.17 0.19 0.20 0.21 0.23 0.24 0.24 0.24 0.22 0.19 0.18 0.13 0.09 0.10 0.15 0.20 0.18 0.17 0.09 0.06 0.03 0.03 0.03 0.04 0.05 0.06 0.10 0.14 0.15 0.22 0.23 0.21 0.17 0.17 0.09 0.10
0.09 0.10 0.11 0.11 0.09 0.08 0.07 0.08 0.07 0.08 0.08 0.08 0.09 0.11 0.12 0.12 0.12 0.12 0.12 0.11 0.11 0.12 0.11 0.10 0.08 0.08 0.09 0.11 0.17 0.19 0.22 0.23 0.25 0.27 0.26 0.24 0.18 0.18 0.15 0.13 0.14 0.16 0.18 0.27 0.21 0.15 0.08 0.04 0.04 0.04 0.05 0.05 0.08 0.10 0.15 0.18 0.21 0.23 0.27 0.25 0.21 0.16 0.11
0.12 0.13 0.11 0.10 0.10 0.09 0.12 0.09 0.09 0.09 0.11 0.08 0.07 0.07 0.08 0.09 0.09 0.10 0.11 0.12 0.13 0.12 0.13 0.13 0.12 0.11 0.12 0.13 0.15 0.16 0.14 0.20 0.26 0.29 0.25 0.24 0.26 0.26 0.21 0.19 0.18 0.17 0.21 0.23 0.22 0.19 0.12 0.08 0.07 0.07 0.07 0.07 0.08 0.10 0.13 0.21 0.23 0.22 0.27 0.29 0.29 0.28 0.21
0.14 0.14 0.13 0.13 0.12 0.12 0.11 0.11 0.10 0.09 0.09 0.08 0.09 0.09 0.09 0.09 0.09 0.08 0.09 0.09 0.10 0.10 0.11 0.12 0.13 0.13 0.12 0.13 0.13 0.14 0.14 0.15 0.15 0.23 0.26 0.27 0.28 0.26 0.29 0.35 0.36 0.31 0.24 0.22 0.24 0.26 0.14 0.12 0.14 0.08 0.11 0.07 0.06 0.08 0.09 0.13 0.20 0.26 0.24 0.26 0.27 0.27 0.24
0.17 0.16 0.15 0.16 0.15 0.14 0.12 0.13 0.12 0.11 0.10 0.09 0.09 0.09 0.11 0.10 0.12 0.13 0.12 0.10 0.09 0.09 0.10 0.11 0.12 0.13 0.12 0.12 0.11 0.12 0.11 0.12 0.15 0.19 0.24 0.22 0.24 0.28 0.37 0.40 0.39 0.37 0.36 0.36 0.35 0.28 0.23 0.17 0.12 0.10 0.07 0.10 0.13 0.15 0.15 0.12 0.13 0.19 0.21 0.25 0.28 0.26 0.25
0.21 0.20 0.21 0.17 0.17 0.18 0.15 0.16 0.14 0.12 0.13 0.13 0.12 0.14 0.17 0.16 0.17 0.16 0.16 0.15 0.14 0.13 0.12 0.11 0.11 0.11 0.14 0.11 0.10 0.10 0.11 0.12 0.14 0.18 0.21 0.21 0.24 0.30 0.37 0.39 0.39 0.42 0.45 0.43 0.39 0.36 0.24 0.21 0.15 0.13 0.12 0.12 0.14 0.16 0.15 0.12 0.11 0.16 0.17 0.18 0.20 0.23 0.27
0.22 0.24 0.33 0.22 0.20 0.19 0.21 0.19 0.16 0.14 0.15 0.19 0.27 0.33 0.33 0.33 0.31 0.29 0.28 0.26 0.23 0.19 0.16 0.14 0.13 0.11 0.09 0.10 0.11 0.12 0.13 0.16 0.19 0.20 0.22 0.26 0.28 0.31 0.39 0.43 0.47 0.46 0.41 0.42 0.48 0.39 0.30 0.31 0.22 0.15 0.11 0.10 0.09 0.07 0.06 0.07 0.08 0.09 0.09 0.10 0.17 0.19 0.24
0.30 0.29 0.29 0.28 0.28 0.31 0.27 0.25 0.20 0.17 0.24 0.43 0.59 0.55 0.53 0.47 0.40 0.34 0.32 0.30 0.27 0.24 0.19 0.15 0.13 0.12 0.11 0.12 0.12 0.14 0.16 0.19 0.20 0.26 0.30 0.27 0.26 0.33 0.42 0.50 0.54 0.48 0.41 0.43 0.40 0.38 0.31 0.26 0.20 0.12 0.12 0.11 0.09 0.07 0.07 0.09 0.09 0.09 0.10 0.14 0.18 0.24 0.22
0.38 0.31 0.29 0.29 0.29 0.31 0.28 0.29 0.23 0.26 0.43 0.54 0.73 0.89 0.69 0.64 0.53 0.43 0.37 0.33 0.30 0.25 0.21 0.18 0.16 0.14 0.13 0.13 0.12 0.12 0.13 0.15 0.20 0.24 0.25 0.29 0.35 0.42 0.54 0.65 0.56 0.56 0.53 0.44 0.45 0.44 0.36 0.34 0.24 0.12 0.10 0.09 0.11 0.12 0.11 0.12 0.13 0.15 0.17 0.18 0.18 0.16 0.17
0.35 0.34 0.34 0.34 0.38 0.32 0.30 0.29 0.25 0.32 0.50 0.60 0.85 1.02 1.01 0.81 0.63 0.49 0.38 0.32 0.28 0.25 0.22 0.19 0.21 0.19 0.17 0.14 0.13 0.15 0.15 0.17 0.17 0.20 0.24 0.28 0.31 0.35 0.50 0.68 0.85 0.72 0.54 0.60 0.59 0.56 0.45 0.30 0.27 0.30 0.17 0.09 0.10 0.17 0.20 0.17 0.19 0.21 0.22 0.21 0.19 0.15 0.13
0.40 0.39 0.43 0.43 0.43 0.40 0.38 0.35 0.32 0.38 0.64 0.83 1.00 1.17 1.23 0.86 0.73 0.59 0.47 0.37 0.31 0.26 0.23 0.22 0.23 0.25 0.22 0.18 0.17 0.18 0.19 0.18 0.18 0.18 0.19 0.22 0.28 0.30 0.31 0.45 0.52 0.53 0.45 0.43 0.51 0.58 0.53 0.34 0.36 0.26 0.24 0.39 0.30 0.28 0.30 0.28 0.26 0.27 0.28 0.28 0.26 0.19 0.18
0.45 0.46 0.48 0.49 0.56 0.52 0.50 0.42 0.40 0.57 0.84 0.92 1.07 1.14 1.47 1.03 0.94 0.76 0.57 0.43 0.36 0.33 0.29 0.25 0.24 0.23 0.21 0.18 0.18 0.18 0.18 0.19 0.19 0.19 0.21 0.20 0.20 0.20 0.20 0.20 0.19 0.25 0.39 0.44 0.35 0.33 0.31 0.27 0.24 0.21 0.19 0.20 0.28 0.41 0.43 0.36 0.33 0.29 0.31 0.35 0.35 0.36 0.33
0.38 0.38 0.39 0.37 0.40 0.45 0.44 0.34 0.39 0.63 0.84 0.94 1.15 1.34 1.25 1.16 0.87 0.69 0.59 0.48 0.41 0.35 0.31 0.27 0.28 0.28 0.26 0.22 0.19 0.18 0.37 0.28 0.25 0.29 0.30 0.27 0.21 0.18 0.16 0.15 0.14 0.21 0.26 0.21 0.32 0.33 0.29 0.24 0.19 0.27 0.29 0.34 0.37 0.35 0.36 0.42 0.48 0.50 0.57 0.61 0.62 0.50 0.33
0.27 0.29 0.33 0.33 0.34 0.36 0.32 0.30 0.34 0.50 0.77 0.85 1.08 1.50 1.55 1.29 0.89 0.67 0.54 0.43 0.38 0.35 0.33 0.30 0.28 0.28 0.29 0.25 0.22 0.18 0.43 0.51 0.52 0.44 0.44 0.42 0.35 0.27 0.23 0.19 0.13 0.32 0.59 0.84 0.93 1.06 0.82 0.71 0.71 0.78 0.98 0.97 0.91 0.65 0.67 0.74 0.81 0.71 0.52 0.56 0.57 0.42 0.27
0.30 0.29 0.30 0.33 0.33 0.33 0.35 0.31 0.30 0.42 0.61 0.74 1.00 1.16 1.13 1.07 0.98 0.72 0.57 0.50 0.41 0.38 0.38 0.31 0.33 0.30 0.29 0.29 0.23 0.30 0.48 0.69 0.68 0.80 0.60 0.45 0.41 0.37 0.32 0.23 0.15 0.13 0.17 0.54 0.87 1.02 1.03 1.11 0.94 0.87 0.87 0.99 0.96 0.87 0.59 0.63 0.76 0.56 0.37 0.42 0.41 0.39 0.24
0.30 0.29 0.29 0.30 0.31 0.33 0.37 0.36 0.32 0.36 0.57 0.80 1.02 1.08 1.07 1.01 0.94 0.82 0.67 0.60 0.54 0.45 0.37 0.31 0.28 0.33 0.37 0.31 0.29 0.52 0.69 1.07 0.84 0.77 0.58 0.38 0.40 0.44 0.40 0.28 0.18 0.16 0.18 0.19 0.24 0.31 0.38 0.43 0.58 0.52 0.52 0.42 0.52 0.60 0.71 0.53 0.47 0.45 0.48 0.48 0.39 0.34 0.32
0.25 0.26 0.28 0.31 0.37 0.38 0.38 0.37 0.36 0.39 0.52 0.78 0.83 1.03 0.93 0.80 0.78 0.80 0.73 0.68 0.60 0.62 0.54 0.42 0.37 0.32 0.35 0.61 0.78 0.65 0.95 1.08 1.48 0.83 0.78 0.60 0.59 0.52 0.36 0.18 0.15 0.20 0.23 0.23 0.23 0.22 0.20 0.25 0.30 0.35 0.45 0.46 0.42 0.36 0.42 0.62 0.44 0.44 0.47 0.45 0.40 0.32 0.29
0.27 0.31 0.35 0.34 0.35 0.38 0.38 0.38 0.37 0.32 0.45 0.62 0.66 0.82 1.10 0.83 0.74 0.65 0.65 0.67 0.68 0.59 0.51 0.46 0.41 0.37 0.33 0.42 0.62 0.73 0.85 1.01 1.26 1.11 0.77 0.76 0.65 0.38 0.26 0.33 0.41 0.36 0.28 0.31 0.26 0.23 0.22 0.23 0.27 0.35 0.40 0.44 0.40 0.39 0.37 0.48 0.35 0.39 0.32 0.40 0.45 0.39 0.33
0.36 0.34 0.28 0.25 0.29 0.33 0.34 0.33 0.32 0.36 0.40 0.42 0.59 0.82 1.07 0.91 0.77 0.63 0.70 0.76 0.61 0.48 0.40 0.36 0.36 0.37 0.38 0.40 0.54 0.77 1.10 1.08 1.20 1.36 0.97 0.79 0.75 0.78 0.76 0.46 0.38 0.33 0.36 0.31 0.30 0.28 0.26 0.27 0.28 0.29 0.32 0.39 0.40 0.36 0.49 0.39 0.32 0.27 0.25 0.23 0.25 0.32 0.34
0.35 0.30 0.28 0.27 0.31 0.32 0.31 0.30 0.30 0.40 0.34 0.34 0.51 0.70 0.90 0.94 0.93 0.92 0.71 0.66 0.57 0.44 0.36 0.32 0.34 0.33 0.36 0.44 0.80 1.04 1.20 1.25 1.50 1.27 1.16 1.22 1.11 0.97 0.80 0.73 0.68 0.55 0.47 0.40 0.33 0.31 0.34 0.31 0.26 0.29 0.27 0.25 0.33 0.31 0.25 0.27 0.27 0.27 0.27 0.29 0.23 0.20 0.21
0.34 0.26 0.27 0.30 0.31 0.31 0.29 0.29 0.34 0.35 0.30 0.32 0.37 0.55 0.79 0.88 0.92 0.88 0.68 0.61 0.50 0.42 0.39 0.36 0.32 0.31 0.42 0.74 0.76 0.85 1.07 1.31 1.19 1.14 1.28 1.43 1.25 0.85 0.81 0.79 0.78 0.70 0.60 0.49 0.40 0.37 0.31 0.28 0.21 0.21 0.20 0.21 0.18 0.27 0.30 0.28 0.28 0.25 0.27 0.27 0.22 0.19 0.18
0.26 0.28 0.29 0.29 0.31 0.34 0.33 0.33 0.34 0.30 0.30 0.31 0.34 0.40 0.57 0.66 0.77 0.66 0.61 0.55 0.44 0.40 0.38 0.36 0.46 0.59 0.66 0.72 0.77 0.77 0.71 0.81 0.77 0.78 0.98 0.90 0.89 0.93 0.89 0.95 0.82 0.64 0.51 0.55 0.53 0.41 0.29 0.21 0.18 0.17 0.17 0.17 0.20 0.23 0.33 0.37 0.34 0.31 0.26 0.26 0.25 0.24 0.17
0.30 0.28 0.27 0.29 0.29 0.33 0.36 0.39 0.33 0.28 0.30 0.34 0.35 0.37 0.46 0.55 0.49 0.50 0.46 0.51 0.45 0.36 0.33 0.34 0.43 0.37 0.38 0.43 0.51 0.61 0.72 0.92 0.68 0.61 0.60 0.72 0.84 0.79 0.87 0.90 0.78 0.59 0.53 0.47 0.34 0.29 0.27 0.23 0.19 0.22 0.24 0.20 0.22 0.28 0.32 0.37 0.39 0.43 0.36 0.32 0.34 0.33 0.31
0.32 0.31 0.33 0.35 0.34 0.37 0.37 0.39 0.31 0.29 0.32 0.40 0.45 0.45 0.47 0.51 0.47 0.50 0.42 0.41 0.48 0.44 0.37 0.36 0.38 0.39 0.41 0.41 0.45 0.54 0.62 0.58 0.49 0.52 0.70 0.60 0.56 0.76 0.85 1.08 0.75 0.55 0.50 0.40 0.32 0.27 0.20 0.19 0.26 0.25 0.33 0.36 0.33 0.33 0.30 0.31 0.32 0.39 0.38 0.33 0.31 0.30 0.29
0.48 0.50 0.54 0.57 0.50 0.50 0.44 0.37 0.31 0.32 0.42 0.53 0.54 0.56 0.52 0.49 0.48 0.55 0.55 0.41 0.41 0.43 0.39 0.41 0.43 0.46 0.45 0.55 0.59 0.60 0.59 0.56 0.53 0.45 0.41 0.42 0.49 0.57 0.64 0.74 0.73 0.68 0.65 0.50 0.48 0.49 0.38 0.37 0.36 0.38 0.36 0.34 0.33 0.27 0.25 0.27 0.34 0.34 0.41 0.44 0.40 0.46 0.40
0.86 0.77 0.80 0.67 0.66 0.73 0.63 0.50 0.50 0.48 0.53 0.56 0.57 0.61 0.60 0.61 0.57 0.53 0.51 0.41 0.42 0.46 0.46 0.43 0.44 0.45 0.45 0.43 0.44 0.46 0.47 0.44 0.40 0.37 0.38 0.44 0.48 0.45 0.47 0.49 0.63 0.69 0.59 0.46 0.49 0.56 0.54 0.54 0.51 0.43 0.35 0.35 0.36 0.29 0.25 0.26 0.34 0.37 0.37 0.44 0.52 0.54 0.43
1.05 1.02 1.00 0.87 0.68 0.70 0.80 0.72 0.60 0.57 0.73 0.73 0.75 0.84 0.70 0.64 0.71 0.66 0.55 0.47 0.44 0.42 0.42 0.38 0.35 0.35 0.35 0.34 0.32 0.34 0.34 0.33 0.33 0.33 0.34 0.37 0.42 0.40 0.42 0.43 0.48 0.52 0.48 0.44 0.52 0.49 0.53 0.49 0.46 0.40 0.37 0.36 0.35 0.34 0.28 0.27 0.35 0.41 0.43 0.49 0.58 0.57 0.49
0.93 1.01 0.85 0.80 0.86 0.75 0.54 0.51 0.47 0.49 0.66 0.71 0.85 0.84 0.75 0.73 0.74 0.63 0.56 0.46 0.43 0.40 0.35 0.33 0.29 0.31 0.30 0.28 0.28 0.29 0.29 0.30 0.30 0.29 0.29 0.32 0.34 0.34 0.37 0.41 0.42 0.47 0.46 0.46 0.48 0.51 0.55 0.50 0.47 0.41 0.34 0.33 0.30 0.30 0.33 0.39 0.43 0.40 0.46 0.49 0.48 0.47 0.43
0.76 0.86 0.94 0.76 0.80 0.90 0.69 0.57 0.54 0.52 0.68 0.79 0.87 0.85 0.75 0.73 0.81 0.77 0.65 0.46 0.36 0.31 0.30 0.29 0.27 0.28 0.28 0.26 0.26 0.25 0.25 0.28 0.31 0.32 0.32 0.30 0.27 0.25 0.25 0.29 0.36 0.42 0.44 0.45 0.47 0.47 0.50 0.54 0.53 0.48 0.40 0.34 0.29 0.28 0.30 0.37 0.47 0.52 0.62 0.57 0.49 0.43 0.39
0.53 0.58 0.68 0.70 0.83 0.89 0.83 0.66 0.62 0.63 0.71 0.76 0.84 0.80 0.67 0.67 0.70 0.62 0.59 0.50 0.36 0.30 0.30 0.28 0.26 0.26 0.27 0.26 0.25 0.26 0.27 0.30 0.34 0.29 0.27 0.27 0.27 0.25 0.23 0.23 0.25 0.31 0.37 0.40 0.43 0.44 0.46 0.56 0.49 0.52 0.49 0.46 0.38 0.34 0.31 0.28 0.30 0.34 0.37 0.46 0.51 0.46 0.41
0.41 0.37 0.40 0.43 0.56 0.68 0.70 0.60 0.57 0.59 0.60 0.63 0.69 0.72 0.72 0.74 0.66 0.59 0.60 0.43 0.35 0.30 0.30 0.29 0.29 0.29 0.29 0.29 0.29 0.29 0.28 0.29 0.31 0.26 0.24 0.21 0.20 0.22 0.21 0.19 0.21 0.25 0.30 0.32 0.36 0.39 0.38 0.40 0.43 0.51 0.51 0.54 0.47 0.40 0.33 0.32 0.29 0.28 0.34 0.40 0.38 0.36 0.37
0.32 0.29 0.33 0.42 0.45 0.56 0.60 0.50 0.47 0.53 0.62 0.70 0.71 0.70 0.78 0.60 0.56 0.61 0.50 0.36 0.29 0.28 0.28 0.28 0.28 0.28 0.27 0.26 0.26 0.28 0.28 0.27 0.28 0.24 0.22 0.21 0.19 0.17 0.18 0.21 0.20 0.20 0.22 0.24 0.27 0.30 0.33 0.34 0.39 0.43 0.44 0.44 0.44 0.43 0.42 0.36 0.33 0.33 0.32 0.32 0.35 0.31 0.29
0.35 0.31 0.29 0.38 0.37 0.42 0.56 0.55 0.49 0.51 0.65 0.78 0.77 0.76 0.63 0.50 0.43 0.37 0.37 0.33 0.31 0.31 0.31 0.29 0.30 0.29 0.29 0.31 0.31 0.32 0.30 0.29 0.29 0.28 0.27 0.25 0.22 0.19 0.19 0.20 0.21 0.21 0.20 0.19 0.21 0.24 0.26 0.30 0.34 0.38 0.43 0.43 0.39 0.36 0.34 0.32 0.29 0.28 0.30 0.29 0.29 0.33 0.30